ZIYUAN 3 (ZY 3)         
1 38046U 12001A   19259.80573679  .00000416  00000-0  21677-4 0  9994
2 38046  97.4487 332.5669 0004937  77.2309  55.9302 15.21348610426868
CZ-4B DEB               
1 38318U 12001E   19259.76254880  .00006061  00000-0  23355-3 0  9997
2 38318  97.5515 250.8132 0094286  70.7396 290.4010 15.22599194415822